Date,TemperatureHighF,TemperatureAvgF,TemperatureLowF,DewpointHighF,DewpointAvgF,DewpointLowF,HumidityHigh,HumidityAvg,HumidityLow,PressureMaxIn,PressureMinIn,WindSpeedMaxMPH,WindSpeedAvgMPH,GustSpeedMaxMPH,PrecipitationSumIn
2013-3-1,84.9,66.9,47.9,36.5,27.5,18.7,53,26,9,30.31,30.17,15,3,20,0.00
2013-3-2,81.2,64.7,53.3,51.6,38.5,28.9,93,43,19,30.21,30.08,6,2,10,0.00
2013-3-3,70.3,57.6,49.1,53.6,50.1,42.1,93,77,43,30.13,29.99,9,1,15,0.00
2013-3-4,65.7,53.9,44.3,52.4,47.9,42.7,95,81,59,30.11,30.02,11,1,12,0.00
2013-3-5,64.2,53.1,44.6,52.0,47.9,43.0,94,83,62,30.14,30.05,7,1,10,0.00
2013-3-6,58.1,52.2,45.5,49.1,46.6,43.0,93,82,60,30.16,30.02,6,2,6,0.00
2013-3-7,61.4,54.0,48.2,50.2,47.3,42.1,96,80,49,30.03,29.84,6,1,12,0.32
2013-3-8,59.7,51.5,43.6,48.0,44.7,42.0,97,79,58,30.03,29.80,11,2,15,0.54
2013-3-9,65.3,52.7,39.9,48.5,43.7,38.7,96,74,46,30.22,30.04,13,2,13,0.01
2013-3-10,76.7,57.3,41.5,46.4,38.2,20.1,85,55,14,30.28,30.18,12,2,15,0.00
2013-3-11,71.0,55.9,40.2,46.8,41.3,35.2,90,62,34,30.19,30.06,7,1,11,0.00
2013-3-12,72.8,57.4,42.4,54.4,45.3,39.2,90,67,39,30.10,30.03,7,1,10,0.00
2013-3-13,75.4,58.5,43.4,55.0,48.6,42.0,95,73,43,30.12,30.04,10,1,10,0.00
2013-3-14,71.2,56.1,44.8,55.0,50.2,44.0,98,83,50,30.12,30.02,9,2,9,0.01
2013-3-15,66.2,55.4,50.5,56.0,52.0,49.0,98,89,68,30.05,29.95,6,1,12,0.00
2013-3-16,63.1,54.4,48.0,54.2,51.0,46.6,98,89,70,30.00,29.89,8,1,10,0.00
2013-3-17,66.9,53.1,44.6,55.6,49.3,43.6,98,88,61,30.03,29.93,6,1,12,0.01
2013-3-18,63.3,53.2,43.9,52.3,48.7,43.1,98,86,65,30.10,30.00,8,1,11,0.01
2013-3-19,67.5,55.6,45.6,56.0,50.4,44.0,96,84,62,30.13,30.05,7,1,12,0.00
2013-3-20,69.0,58.4,50.6,56.0,51.7,48.0,95,79,59,30.11,29.96,8,1,10,0.00
2013-3-21,70.5,58.1,46.3,55.0,50.6,45.0,96,78,55,29.97,29.81,8,1,11,0.00
2013-3-22,71.8,57.9,43.6,52.0,45.7,38.0,95,67,39,29.91,29.80,11,1,12,0.00
2013-3-23,68.1,53.8,40.0,54.0,42.8,29.0,93,69,35,30.02,29.91,11,1,15,0.00
2013-3-24,71.7,56.9,42.1,54.0,47.5,39.0,94,73,40,30.04,29.90,7,1,12,0.00
2013-3-25,68.4,56.4,42.2,56.0,48.8,39.0,93,77,57,29.99,29.91,8,1,10,0.00
2013-3-26,66.2,55.8,46.3,54.0,50.3,46.0,97,83,63,29.98,29.92,8,1,14,0.00
2013-3-27,67.6,57.0,46.4,54.0,50.3,45.0,96,80,58,30.06,29.94,9,2,14,0.00
2013-3-28,68.5,56.7,49.2,56.0,51.7,48.0,97,84,62,30.10,30.03,7,1,13,0.00
2013-3-29,69.1,56.7,46.6,57.4,52.4,46.0,97,86,64,30.13,30.05,11,2,11,0.00
2013-3-30,69.3,58.5,53.5,56.5,53.2,52.0,96,84,60,30.15,30.07,7,1,14,0.00
2013-3-31,66.5,58.9,53.2,59.5,54.2,51.4,95,85,66,30.13,30.07,8,2,12,0.03